WX8TJG-WX Weather Reports


time (UTC)temp
F
wind
direction
speed
knots
gust
knots
rain 1hr
in
rain 24hr
in
rain mn
in
humidity
%
barometer
mb
20260504045018 51 186 6.1 11.3 0.00 0.01 0.00 64 1012.2
20260504044019 51 188 6.1 10.4 0.00 0.01 0.00 65 1012.2
20260504043015 50 181 6.1 10.4 0.00 0.01 0.00 67 1012.3
20260504042016 50 177 5.2 7.0 0.00 0.01 0.00 69 1012.4
20260504041016 49 176 5.2 8.7 0.00 0.01 0.00 69 1012.4
20260504040020 49 180 5.2 9.6 0.00 0.01 0.00 70 1012.5
20260504035016 49 182 5.2 7.8 0.00 0.01 0.01 71 1012.5
20260504034016 49 177 6.1 7.8 0.00 0.01 0.01 70 1012.7
20260504033016 49 181 6.1 8.7 0.00 0.01 0.01 70 1012.7
20260504032016 49 180 5.2 8.7 0.00 0.01 0.01 71 1012.8
20260504031037 48 183 4.3 7.8 0.00 0.01 0.01 72 1013.0
20260504030017 48 182 4.3 7.8 0.00 0.01 0.01 72 1013.1
20260504025017 48 183 4.3 7.0 0.00 0.01 0.01 73 1013.1
20260504024017 48 184 4.3 7.8 0.00 0.01 0.01 74 1013.2
20260504023017 48 184 4.3 7.0 0.00 0.01 0.01 74 1013.3
20260504021018 49 181 3.5 7.0 0.00 0.01 0.01 74 1013.4
20260504020038 49 179 4.3 7.0 0.00 0.01 0.01 73 1013.3
20260504015018 49 179 3.5 6.1 0.00 0.01 0.01 74 1013.3
20260504014018 49 180 3.5 5.2 0.00 0.01 0.01 75 1013.2
20260504013015 49 163 3.5 4.3 0.00 0.01 0.01 74 1013.2
20260504012017 49 177 3.5 6.1 0.00 0.01 0.01 73 1013.2
20260504011016 49 181 3.5 6.1 0.00 0.01 0.01 73 1013.2
20260504010016 49 180 3.5 5.2 0.00 0.01 0.01 72 1013.4
20260504005016 49 198 2.6 4.3 0.00 0.01 0.01 72 1013.5
20260504004016 50 190 5.2 7.8 0.00 0.01 0.01 71 1013.5
20260504003017 50 197 2.6 5.2 0.00 0.01 0.01 70 1013.6
20260504002017 50 223 4.3 14.8 0.00 0.01 0.01 68 1013.8
20260504001017 51 234 4.3 7.0 0.00 0.01 0.01 67 1013.8
20260504000017 51 227 4.3 13.0 0.00 0.01 0.01 65 1013.8
20260503235037 52 243 7.0 12.2 0.00 0.01 0.01 63 1013.7
20260503234017 54 252 6.1 8.7 0.00 0.01 0.01 61 1013.5
20260503233018 56 246 7.0 14.8 0.00 0.01 0.01 51 1013.3
20260503232018 57 240 5.2 11.3 0.00 0.01 0.01 47 1013.1
20260503231018 57 224 4.3 7.8 0.00 0.01 0.01 47 1013.0
20260503230038 57 229 5.2 8.7 0.01 0.01 0.01 46 1013.1
20260503225018 58 212 5.2 9.6 0.01 0.01 0.01 45 1013.2
20260503224016 58 220 4.3 8.7 0.01 0.01 0.01 46 1013.2
20260503223016 58 234 3.5 9.6 0.01 0.01 0.01 46 1013.3
20260503222016 58 223 4.3 11.3 0.01 0.01 0.01 46 1013.4
20260503221016 58 226 3.5 7.8 0.01 0.01 0.01 47 1013.5
20260503220016 58 234 4.3 8.7 0.00 0.00 0.00 45 1013.5
20260503215016 58 225 5.2 13.0 0.00 0.00 0.00 45 1013.5
20260503214016 59 241 5.2 12.2 0.00 0.00 0.00 46 1013.5
20260503213017 59 224 5.2 12.2 0.00 0.00 0.00 45 1013.5
20260503212017 59 232 4.3 8.7 0.00 0.00 0.00 46 1013.6
20260503211018 59 216 5.2 9.6 0.00 0.00 0.00 46 1013.6
20260503210037 59 215 6.1 12.2 0.00 0.00 0.00 46 1013.8
20260503205017 59 231 4.3 10.4 0.00 0.00 0.00 46 1013.9
20260503204017 59 246 6.1 15.6 0.00 0.00 0.00 46 1013.9
20260503203018 59 248 6.1 13.0 0.00 0.00 0.00 46 1014.0
20260503202018 59 250 6.1 12.2 0.00 0.00 0.00 46 1014.1
20260503201018 59 249 6.1 12.2 0.00 0.00 0.00 46 1014.2
20260503200018 59 212 6.1 10.4 0.00 0.00 0.00 46 1014.3
20260503195016 59 242 4.3 9.6 0.00 0.00 0.00 46 1014.4
20260503194015 60 226 7.0 13.9 0.00 0.00 0.00 44 1014.6
20260503193016 59 235 5.2 11.3 0.00 0.00 0.00 47 1014.7
20260503192016 59 246 5.2 10.4 0.00 0.00 0.00 47 1014.9
20260503191016 59 215 7.0 13.9 0.00 0.00 0.00 46 1015.0
20260503190016 59 233 5.2 11.3 0.00 0.00 0.00 47 1015.2
20260503185017 59 209 7.0 12.2 0.00 0.00 0.00 47 1015.3
20260503184020 59 214 6.1 11.3 0.00 0.00 0.00 48 1015.5
20260503183016 58 226 5.2 10.4 0.00 0.00 0.00 48 1015.5
20260503182017 58 223 4.3 11.3 0.00 0.00 0.00 48 1015.7
20260503181017 58 205 7.8 13.0 0.00 0.00 0.00 46 1015.7
20260503180017 58 244 6.1 10.4 0.00 0.00 0.00 46 1015.9
20260503175018 58 222 5.2 10.4 0.00 0.00 0.00 45 1015.9
20260503174017 58 230 5.2 11.3 0.00 0.00 0.00 48 1016.0
20260503173018 58 234 3.5 8.7 0.00 0.00 0.00 49 1016.1
20260503171018 58 245 5.2 11.3 0.00 0.00 0.00 49 1016.5
20260503131016 45 196 3.5 7.8 0.00 0.04 0.00 67 1017.7
20260503081020 34 157 0.9 3.5 0.00 0.04 0.00 89 1016.9
20260503072017 35 161 0.9 2.6 0.00 0.04 0.00 86 1016.9
20260503071017 35 151 0.9 2.6 0.00 0.04 0.00 87 1016.9